GW0067 Weather Reports


time (UTC)temp
C
wind
direction
speed
KPH
gust
KPH
rain 1hr
cm
rain 24hr
cm
rain mn
cm
humidity
%
barometer
mb
20260506051008 7 244 0.0 3.2 0.00 0.10 0.03 83 1013.4
20260506050512 7 316 0.0 3.2 0.00 0.10 0.03 83 1013.3
20260506045011 7 205 0.0 4.8 0.00 0.10 0.03 83 1013.3
20260506044528 7 243 0.0 8.0 0.00 0.10 0.03 83 1013.3
20260506044008 7 92 1.6 8.0 0.00 0.10 0.03 83 1013.3
20260506043508 7 229 0.0 3.2 0.00 0.10 0.03 83 1013.2
20260506042510 7 249 0.0 0.0 0.00 0.10 0.03 82 1013.3
20260506042009 7 229 0.0 0.0 0.00 0.10 0.03 82 1013.3
20260506041528 7 108 0.0 1.6 0.00 0.10 0.03 82 1013.3
20260506041008 7 83 0.0 1.6 0.00 0.10 0.03 82 1013.3
20260506040513 7 217 0.0 4.8 0.00 0.10 0.03 82 1013.3
20260506040026 7 62 0.0 4.8 0.00 0.10 0.03 82 1013.3
20260506035504 7 132 0.0 3.2 0.00 0.10 0.03 83 1013.3
20260506035007 7 242 0.0 8.0 0.00 0.10 0.03 83 1013.3
20260506034512 7 248 0.0 8.0 0.00 0.10 0.03 83 1013.3
20260506034008 8 108 0.0 0.0 0.00 0.10 0.03 84 1013.3
20260506033505 8 169 0.0 1.6 0.00 0.10 0.03 84 1013.2
20260506033026 8 21 0.0 1.6 0.00 0.10 0.03 84 1013.3
20260506032508 8 205 0.0 6.4 0.00 0.10 0.03 84 1013.3
20260506032011 8 38 0.0 6.4 0.00 0.10 0.03 84 1013.3
20260506031531 8 63 0.0 6.4 0.00 0.10 0.03 84 1013.3
20260506031009 8 88 0.0 3.2 0.00 0.10 0.03 84 1013.3
20260506030511 8 252 0.0 4.8 0.00 0.10 0.03 84 1013.3
20260506030046 8 10 0.0 4.8 0.00 0.10 0.03 84 1013.3
20260506025511 8 63 0.0 1.6 0.00 0.10 0.03 84 1013.4
20260506025012 8 77 0.0 1.6 0.00 0.10 0.03 84 1013.4
20260506024531 8 90 0.0 3.2 0.00 0.10 0.03 84 1013.4
20260506024008 8 68 0.0 3.2 0.00 0.10 0.03 84 1013.3
20260506023508 8 252 0.0 1.6 0.00 0.10 0.03 84 1013.4
20260506023015 8 271 0.0 1.6 0.00 0.10 0.03 84 1013.3
20260506022506 8 281 0.0 1.6 0.00 0.10 0.03 85 1013.3
20260506022006 8 255 0.0 0.0 0.00 0.10 0.03 85 1013.4
20260506021521 8 269 0.0 1.6 0.00 0.10 0.03 85 1013.4
20260506021008 8 221 0.0 1.6 0.00 0.10 0.03 85 1013.3
20260506020512 8 248 0.0 6.4 0.00 0.10 0.03 86 1013.4
20260506020025 8 247 0.0 6.4 0.00 0.10 0.03 86 1013.4
20260506015512 8 125 0.0 0.0 0.00 0.10 0.03 86 1013.4
20260506015010 8 25 0.0 3.2 0.00 0.10 0.03 86 1013.4
20260506014524 8 17 0.0 3.2 0.00 0.10 0.03 86 1013.4
20260506014008 8 200 0.0 0.0 0.00 0.10 0.03 85 1013.4
20260506013511 8 63 0.0 0.0 0.00 0.10 0.03 85 1013.4
20260506013025 8 122 0.0 0.0 0.00 0.10 0.03 85 1013.4
20260506012509 8 265 0.0 4.8 0.00 0.10 0.03 85 1013.5
20260506012004 8 59 0.0 4.8 0.00 0.10 0.03 85 1013.5
20260506011534 8 251 0.0 1.6 0.00 0.10 0.03 85 1013.5
20260506011008 8 97 0.0 1.6 0.00 0.10 0.03 85 1013.5
20260506010503 8 72 0.0 0.0 0.00 0.10 0.03 85 1013.5
20260506010007 8 72 0.0 0.0 0.00 0.10 0.03 85 1013.5
20260506005507 9 72 0.0 0.0 0.00 0.10 0.03 85 1013.5
20260506005003 9 37 0.0 8.0 0.00 0.10 0.03 84 1013.5
20260506004517 9 249 0.0 8.0 0.00 0.10 0.03 84 1013.5
20260506004004 9 86 0.0 0.0 0.00 0.10 0.03 84 1013.5
20260506003504 9 108 0.0 0.0 0.00 0.10 0.03 84 1013.5
20260506003015 9 54 0.0 1.6 0.00 0.10 0.03 84 1013.5
20260506002505 9 102 0.0 9.7 0.00 0.10 0.03 84 1013.5
20260506002017 9 60 0.0 11.3 0.00 0.10 0.03 84 1013.5
20260506001518 9 68 1.6 11.3 0.00 0.10 0.03 84 1013.6
20260506001002 9 78 0.0 4.8 0.00 0.10 0.03 84 1013.5
20260506000506 9 6 0.0 4.8 0.00 0.10 0.03 84 1013.5
20260506000006 9 53 0.0 4.8 0.03 0.10 0.03 84 1013.5
20260505235503 9 68 0.0 6.4 0.03 0.10 0.03 84 1013.6
20260505235003 9 99 0.0 6.4 0.08 0.10 0.03 84 1013.6
20260505234506 9 122 0.0 4.8 0.10 0.10 0.03 84 1013.6
20260505234005 9 356 0.0 4.8 0.10 0.10 0.03 84 1013.6
20260505233505 9 25 0.0 6.4 0.10 0.10 0.03 84 1013.6
20260505233007 9 60 0.0 6.4 0.10 0.10 0.03 84 1013.5
20260505232502 9 259 0.0 3.2 0.10 0.10 0.03 85 1013.6
20260505232005 10 52 0.0 3.2 0.10 0.10 0.03 85 1013.5
20260505231522 10 330 0.0 0.0 0.10 0.10 0.03 85 1013.5
20260505231010 10 102 0.0 4.8 0.10 0.10 0.03 84 1013.6
20260505230506 10 44 0.0 6.4 0.10 0.10 0.03 83 1013.6
20260505230024 10 79 0.0 6.4 0.08 0.08 0.00 82 1013.7
20260505225509 10 270 0.0 9.7 0.08 0.08 0.08 80 1013.7
20260505225003 11 1 0.0 9.7 0.03 0.03 0.03 78 1013.5
20260505224504 11 276 0.0 8.0 0.00 0.00 0.00 75 1013.5
20260505224003 11 90 1.6 0.0 0.00 0.00 0.00 1013.5
20260505223512 11 0.0 0.0 0.00 0.00 0.00 74 1013.4
20260505223027 11 200 1.6 3.2 0.00 0.00 0.00 74 1013.4
20260505222508 11 0.0 1.6 0.00 0.00 0.00 73 1013.4
20260505222006 11 105 0.0 8.0 0.00 0.00 0.00 73 1013.4
20260505221508 11 60 1.6 8.0 0.00 0.00 0.00 72 1013.3
20260505221012 11 117 0.0 12.9 0.00 0.00 0.00 72 1013.3
20260505220032 12 135 0.0 6.4 0.00 0.00 0.00 72 1013.3
20260505215507 12 65 0.0 4.8 0.00 0.00 0.00 72 1013.2
20260505215007 12 290 0.0 4.8 0.00 0.00 0.00 71 1013.2
20260505214518 12 62 0.0 4.8 0.00 0.00 0.00 71 1013.2
20260505214013 12 64 0.0 8.0 0.00 0.00 0.00 72 1013.2
20260505213513 12 244 0.0 11.3 0.00 0.00 0.00 72 1013.2
20260505213007 12 99 0.0 11.3 0.00 0.00 0.00 72 1013.2
20260505212504 12 245 0.0 1.6 0.00 0.00 0.00 72 1013.1
20260505212005 12 195 0.0 14.5 0.00 0.00 0.00 72 1013.1
20260505211506 12 94 1.6 14.5 0.00 0.00 0.00 71 1013.1
20260505211005 12 60 0.0 6.4 0.00 0.00 0.00 71 1013.1
20260505210502 12 252 0.0 14.5 0.00 0.00 0.00 71 1013.1
20260505210010 12 63 0.0 14.5 0.00 0.00 0.00 71 1013.1
20260505205504 12 138 0.0 8.0 0.00 0.00 0.00 71 1013.1
20260505205007 12 125 0.0 4.8 0.00 0.00 0.00 71 1013.0
20260505204515 12 60 0.0 4.8 0.00 0.00 0.00 71 1013.0
20260505204006 12 13 0.0 12.9 0.00 0.00 0.00 71 1012.9
20260505203507 13 30 0.0 12.9 0.00 0.00 0.00 71 1013.0
20260505203025 13 55 0.0 8.0 0.00 0.00 0.00 71 1012.9
20260505202509 13 210 0.0 9.7 0.00 0.00 0.00 71 1012.8
20260505202008 13 109 0.0 9.7 0.00 0.00 0.00 71 1012.9
20260505201520 13 63 0.0 3.2 0.00 0.00 0.00 71 1012.8
20260505201004 13 6 0.0 4.8 0.00 0.00 0.00 70 1012.8
20260505200505 13 39 0.0 4.8 0.00 0.00 0.00 70 1012.7
20260505200008 13 253 0.0 0.0 0.00 0.00 0.00 69 1012.7
20260505195511 13 253 0.0 0.0 0.00 0.00 0.00 69 1012.7
20260505194528 -17 0.0 0.0 0.00 0.00 0.00 1012.5
20260505194008 -17 0.0 0.0 0.00 0.00 0.00 1012.5
20260505193511 -17 0.0 0.0 0.00 0.00 0.00 1012.4
20260505193028 -17 0.0 0.0 0.00 0.00 0.00 1012.4
20260505192511 -17 0.0 0.0 0.00 0.00 0.00 1012.4
20260505192011 14 0.0 0.0 0.00 0.00 0.00 1012.4
20260505191529 14 106 0.0 0.0 0.00 0.00 0.00 67 1012.3
20260505191009 14 226 0.0 0.0 0.00 0.00 0.00 67 1012.3
20260505190507 14 226 0.0 0.0 0.00 0.00 0.00 66 1012.3
20260505190035 14 71 0.0 0.0 0.00 0.00 0.00 66 1012.3
20260505185516 14 237 0.0 0.0 0.00 0.00 0.00 66 1012.2
20260505185007 14 245 0.0 0.0 0.00 0.00 0.00 66 1012.2
20260505184531 14 340 0.0 0.0 0.00 0.00 0.00 65 1012.2
20260505184009 14 211 0.0 0.0 0.00 0.00 0.00 65 1012.1
20260505183508 15 247 0.0 0.0 0.00 0.00 0.00 65 1012.1
20260505183027 15 242 0.0 0.0 0.00 0.00 0.00 65 1012.0
20260505182510 15 245 0.0 0.0 0.00 0.00 0.00 64 1012.1
20260505182008 15 162 0.0 0.0 0.00 0.00 0.00 64 1012.0
20260505181519 15 252 0.0 0.0 0.00 0.00 0.00 63 1012.2
20260505181008 15 96 0.0 0.0 0.00 0.00 0.00 63 1012.2
20260505180509 15 215 0.0 0.0 0.00 0.00 0.00 63 1012.1
20260505180034 15 224 0.0 0.0 0.00 0.00 0.00 62 1012.1
20260505175511 15 127 0.0 6.4 0.00 0.00 0.00 62 1012.2
20260505175009 15 262 0.0 6.4 0.00 0.00 0.00 61 1012.1
20260505174525 15 212 0.0 0.0 0.00 0.00 0.00 62 1012.0
20260505174009 15 26 0.0 6.4 0.00 0.00 0.00 62 1012.0
20260505173509 15 37 0.0 8.0 0.00 0.00 0.00 61 1012.1
20260505173010 15 18 0.0 8.0 0.00 0.00 0.00 62 1012.1
20260505172506 15 239 0.0 8.0 0.00 0.00 0.00 63 1012.2
20260505172007 15 26 0.0 6.4 0.00 0.00 0.00 63 1012.2
20260505171013 15 268 0.0 1.6 0.00 0.00 0.00 63 1012.2
20260505170508 15 249 0.0 0.0 0.00 0.00 0.00 64 1012.2
20260505170020 15 247 0.0 0.0 0.00 0.00 0.00 65 1012.2
20260505165512 15 49 0.0 0.0 0.00 0.00 0.00 65 1012.2
20260505165012 15 255 0.0 0.0 0.00 0.00 0.00 66 1012.2
20260505164536 15 233 0.0 0.0 0.00 0.00 0.00 66 1012.2
20260505164011 15 239 0.0 0.0 0.00 0.00 0.00 66 1012.2
20260505163508 15 112 0.0 0.0 0.00 0.00 0.00 67 1012.2
20260505163030 15 231 0.0 0.0 0.00 0.00 0.00 66 1012.2
20260505162512 15 234 0.0 0.0 0.00 0.00 0.00 66 1012.3
20260505162012 15 250 0.0 0.0 0.00 0.00 0.00 66 1012.3
20260505161011 15 100 0.0 0.0 0.00 0.00 0.00 65 1012.3
20260505160507 15 47 0.0 0.0 0.00 0.00 0.00 65 1012.3
20260505153027 16 217 0.0 0.0 0.00 0.00 0.00 62 1012.3
20260505152508 16 238 0.0 0.0 0.00 0.00 0.00 61 1012.3
20260505152013 16 137 0.0 0.0 0.00 0.00 0.00 60 1012.3
20260505151528 16 300 0.0 1.6 0.00 0.00 0.00 60 1012.3
20260505151009 16 266 0.0 4.8 0.00 0.00 0.00 59 1012.4
20260505150511 16 79 0.0 4.8 0.00 0.00 0.00 59 1012.4
20260505140510 16 186 0.0 0.0 0.00 0.00 0.00 62 1012.6
20260505125011 15 117 0.0 0.0 0.00 0.00 0.00 61 1012.9
20260505124513 16 50 0.0 0.0 0.00 0.00 0.00 60 1012.9
20260505123003 16 144 0.0 9.7 0.00 0.00 0.00 60 1012.9
20260505122503 16 243 1.6 9.7 0.00 0.00 0.00 61 1012.9
20260505121521 16 71 0.0 1.6 0.00 0.00 0.00 61 1013.0
20260505120503 15 236 0.0 8.0 0.00 0.00 0.00 64 1013.0
20260505114511 16 31 0.0 9.7 0.00 0.00 0.00 63 1013.1
20260505112011 14 42 0.0 4.8 0.00 0.00 0.00 70 1013.2
20260505111509 13 79 0.0 0.0 0.00 0.00 0.00 72 1013.2
20260505111003 13 297 0.0 0.0 0.00 0.00 0.00 73 1013.2
20260505110503 13 252 0.0 0.0 0.00 0.00 0.00 74 1013.3
20260505102010 12 230 0.0 0.0 0.00 0.00 0.00 73 1013.6
20260505101517 12 110 0.0 4.8 0.00 0.00 0.00 73 1013.5
20260505101011 13 245 0.0 4.8 0.00 0.00 0.00 73 1013.5
20260505100509 13 259 0.0 3.2 0.00 0.00 0.00 73 1013.5
20260505100028 13 226 0.0 6.4 0.00 0.00 0.00 74 1013.5
20260505095504 13 64 0.0 6.4 0.00 0.00 0.00 74 1013.5
20260505095003 13 94 0.0 4.8 0.00 0.00 0.00 75 1013.5
20260505094004 12 242 0.0 3.2 0.00 0.00 0.00 76 1013.6
20260505093504 12 241 0.0 8.0 0.00 0.00 0.00 77 1013.6
20260505093008 12 123 0.0 11.3 0.00 0.00 0.00 77 1013.6
20260505092504 12 68 1.6 11.3 0.00 0.00 0.00 78 1013.6
20260505092009 12 50 0.0 6.4 0.00 0.00 0.00 77 1013.6
20260505091512 12 246 0.0 9.7 0.00 0.00 0.00 77 1013.6
20260505091008 12 221 0.0 9.7 0.00 0.00 0.00 77 1013.6
20260505090509 12 246 0.0 3.2 0.00 0.00 0.00 78 1013.7
20260505090016 12 159 0.0 3.2 0.00 0.00 0.00 79 1013.6
20260505085507 12 259 0.0 0.0 0.00 0.00 0.00 80 1013.7
20260505085009 12 235 0.0 9.7 0.00 0.00 0.00 81 1013.8
20260505084529 12 245 0.0 9.7 0.00 0.00 0.00 81 1013.8
20260505084009 12 240 0.0 4.8 0.00 0.00 0.00 82 1013.8
20260505083504 12 195 0.0 3.2 0.00 0.00 0.00 82 1013.8
20260505083015 11 22 0.0 3.2 0.00 0.00 0.00 83 1013.9
20260505082507 11 247 0.0 1.6 0.00 0.00 0.00 83 1013.8
20260505082004 11 112 0.0 4.8 0.00 0.00 0.00 83 1013.8
20260505081509 11 240 0.0 4.8 0.00 0.00 0.00 83 1013.8
20260505081009 11 253 0.0 3.2 0.00 0.00 0.00 84 1013.9
20260505080504 11 262 0.0 3.2 0.00 0.00 0.00 84 1013.8
20260505080021 11 120 0.0 3.2 0.00 0.00 0.00 84 1013.9
20260505075508 11 26 0.0 3.2 0.00 0.00 0.00 84 1013.8
20260505075007 11 141 0.0 3.2 0.00 0.05 0.00 84 1013.7
20260505074520 11 234 0.0 1.6 0.00 0.05 0.00 84 1013.7
20260505074007 11 234 0.0 1.6 0.00 0.05 0.00 84 1013.8
20260505073508 11 221 0.0 1.6 0.00 0.05 0.00 84 1013.8
20260505073035 11 227 0.0 1.6 0.00 0.05 0.00 85 1013.8
20260505072508 11 248 0.0 0.0 0.00 0.05 0.00 85 1013.9
20260505072011 11 219 0.0 0.0 0.00 0.05 0.00 85 1013.8
20260505071505 11 219 0.0 0.0 0.00 0.05 0.00 85 1013.8
20260505071005 11 336 0.0 0.0 0.00 0.05 0.00 85 1013.9
20260505070505 11 77 0.0 6.4 0.00 0.05 0.00 85 1014.1
20260505070012 11 245 0.0 6.4 0.00 0.05 0.00 85 1014.1
20260505065506 11 232 0.0 0.0 0.00 0.05 0.00 85 1014.1
20260505065006 11 240 0.0 0.0 0.00 0.05 0.00 85 1014.1
20260505064516 11 157 0.0 0.0 0.00 0.05 0.00 86 1014.1
20260505064007 11 70 0.0 0.0 0.00 0.05 0.00 86 1014.1
20260505063508 11 232 0.0 0.0 0.00 0.05 0.00 87 1014.0
20260505063029 11 226 0.0 0.0 0.00 0.05 0.00 87 1013.9
20260505062509 11 226 0.0 0.0 0.00 0.05 0.00 87 1013.9
20260505062009 10 247 0.0 0.0 0.00 0.05 0.00 87 1013.9
20260505061528 10 228 0.0 0.0 0.00 0.05 0.00 88 1013.8
20260505061010 10 117 0.0 0.0 0.00 0.05 0.00 88 1013.9
20260505060514 10 243 0.0 0.0 0.00 0.05 0.00 88 1013.9
20260505060052 10 75 0.0 0.0 0.00 0.05 0.00 88 1013.9
20260505055512 10 242 0.0 0.0 0.00 0.05 0.00 88 1013.9
20260505055014 10 242 0.0 0.0 0.00 0.05 0.00 89 1013.9
20260505054518 10 254 0.0 0.0 0.00 0.05 0.00 89 1013.9
20260505054017 10 72 0.0 0.0 0.00 0.05 0.00 89 1013.9
20260505053508 10 71 0.0 0.0 0.00 0.05 0.00 89 1014.0
20260505053016 10 248 0.0 0.0 0.00 0.05 0.00 89 1014.0
20260505052508 10 248 0.0 0.0 0.00 0.05 0.00 89 1014.0
20260505052008 10 248 0.0 0.0 0.00 0.05 0.00 89 1014.0